Location: Borbetomagus
(49.6328°N, 8.3592°E)
Time: 05:39:07
(UTC+00:00)

Tiangong - Visible Passes

Search period start: 15 January 2026 00:00
Search period end: 25 January 2026 00:00
Orbit: 378 x 394 km, 41.5° (Epoch: 14 January)

Date Brightness Start Highest point End Pass type
(mag) Time Alt. Az. Time Alt. Az. Time Alt. Az.
17 Jan 1.3 06:13:30 10° SSE 06:13:45 10° SSE 06:14:00 10° SSE visible
19 Jan 0.7 05:50:08 10° SSW 05:51:49 14° SSE 05:53:29 10° SE visible
20 Jan 0.9 04:52:22 10° SSE 04:52:47 10° SSE 04:53:14 10° SSE visible
20 Jan 0.4 06:26:36 10° SW 06:28:54 18° S 06:31:14 10° SE visible
21 Jan 0.4 05:27:57 11° SSW 05:29:48 16° S 05:31:56 10° SE visible
22 Jan 0.8 04:31:33 13° SSE 04:31:33 13° SSE 04:32:24 10° SE visible
22 Jan 0.2 06:04:32 10° SW 06:06:54 19° S 06:09:15 10° SE visible
23 Jan 0.0 05:07:17 18° S 05:07:44 18° S 05:10:02 10° SE visible
24 Jan 0.1 05:42:58 12° SW 05:44:47 18° S 05:47:02 10° SE visible
